This is the latest recevied weather packets stored in our database for station/object AJ7DN. If no packets are shown the sender has not sent any weather packets the latest 10 day(s).
| Time | Temp. | Humidity | Pressure | Rain* | Wind** | Luminosity | Snow |
|---|---|---|---|---|---|---|---|
| 1777489347 | 17.22° C | 51% | 1027.9 hPa | 0 mm | - | 901 W/m² | - |
| 1777489044 | 16.67° C | 51% | 1028 hPa | 0 mm | - | 916 W/m² | - |
| 1777488741 | 16.11° C | 54% | 1027.6 hPa | 0 mm | - | 949 W/m² | - |
| 1777488438 | 16.67° C | 53% | 1027.9 hPa | 0 mm | - | 985 W/m² | - |
| 1777488137 | 16.67° C | 53% | 1028 hPa | 0 mm | - | 1019 W/m² | - |
| 1777487835 | 16.67° C | 52% | 1028.2 hPa | 0 mm | - | 1021 W/m² | - |
| 1777487532 | 16.11° C | 55% | 1028.2 hPa | 0 mm | - | 1056 W/m² | - |
| 1777487229 | 16.11° C | 56% | 1028 hPa | 0 mm | - | 1046 W/m² | - |
| 1777486925 | 15° C | 56% | 1028.1 hPa | 0 mm | - | 1025 W/m² | - |
| 1777486622 | 15° C | 59% | 1028.3 hPa | 0 mm | - | 855 W/m² | - |
| 1777486320 | 15.56° C | 57% | 1028.3 hPa | 0 mm | - | 845 W/m² | - |
| 1777486017 | 15° C | 59% | 1028.3 hPa | 0 mm | - | 805 W/m² | - |
| 1777485714 | 15° C | 59% | 1028.3 hPa | 0 mm | - | 790 W/m² | - |
| 1777485409 | 15° C | 59% | 1028.5 hPa | 0 mm | - | 760 W/m² | - |
| 1777485105 | 15° C | 59% | 1028.5 hPa | 0 mm | - | 748 W/m² | - |
| 1777484802 | 14.44° C | 60% | 1028.5 hPa | 0 mm | - | 738 W/m² | - |
| 1777484498 | 14.44° C | 61% | 1028.5 hPa | 0 mm | - | 751 W/m² | - |
| 1777484196 | 13.89° C | 61% | 1028.6 hPa | 0 mm | - | 714 W/m² | - |
| 1777483891 | 13.89° C | 62% | 1028.8 hPa | 0 mm | - | 704 W/m² | - |
| 1777483588 | 13.89° C | 62% | 1028.6 hPa | 0 mm | - | 692 W/m² | - |
| 1777483288 | 13.89° C | 62% | 1028.7 hPa | 0 mm | - | 662 W/m² | - |
| 1777482985 | 13.89° C | 63% | 1028.7 hPa | 0 mm | - | 660 W/m² | - |
| 1777482681 | 13.33° C | 64% | 1028.9 hPa | 0 mm | - | 637 W/m² | - |
| 1777482378 | 12.78° C | 64% | 1028.8 hPa | 0 mm | - | 609 W/m² | - |
| 1777482075 | 12.78° C | 63% | 1029 hPa | 0 mm | - | 580 W/m² | - |
* Rain latest hour (hover to see other rain measurements)
** Current wind speed in m/s (hover to see current wind gust speed)